Starlink 5933

operational
NORAD ID: 55961 Int'l Des: 2023-037 Owner: SPXS Country: US Constellation: starlink
LEOCIRCULAR

Starlink 5933について

説明を読み込み中...

リアルタイム位置

3D地球を読み込み中...

次回通過

高度履歴

Altitude vs Time

uPlot chart will show altitude changes over time

軌道要素

1 55961U 23037AZ 26063.00354348 -.00000878 00000-0 -65793-4 0 9994
2 55961 69.9983 278.7039 0002547 267.7444 92.3424 14.98331624163623
Epoch: Mar 4, 2026 • Age: 9 hours

現在のステータス

高度 575.5 km
速度 7.57 km/s
衛星直下点 -7.93°S, 164.52°E
打ち上げ日 Mar 17, 2023
運用期間 2.9 years
タイプ internet

技術仕様

分類 Payload
質量 305.00 kg
乾燥質量 290.00 kg
総質量 305.00 kg
長さ 0.20 m
直径 2.80 m
スパン 9.00 m
形状 Box + pan
製造者 SPXS
バスタイプ Starlink
フェーズステータス In Orbit
所有者/国 SPXS/US

大規模コンステレーション

Loading constellations...